Location: Chatain
(45.8882°N, 1.9448°E)
Time: 02:45:19
(UTC+00:00)

Daily predictions for brighter satellites

Satellite Brightness Start Highest point End
(mag) Time Altitude Azimuth Time Altitude Azimuth Time Altitude Azimuth
Cosmos 1867 3.5 00:05:01 56° SSW 00:06:13 80° ESE 00:11:43 10° NE
Cosmos 1461 2.7 00:02:20 10° NW 00:06:31 85° SW 00:06:31 85° SW
Cosmos 2221 Rocket 3.4 00:06:47 77° S 00:07:06 90° SE 00:11:32 10° N
Cosmos 1674 Rocket 3.6 00:06:55 60° ESE 00:07:09 61° E 00:11:26 10° NNE
Cosmos 2298 Rocket 4.5 00:07:41 43° SE 00:08:33 47° ESE 00:13:37 10° NNE
Cosmos 1674 2.8 00:10:51 70° NW 00:10:51 70° NW 00:14:20 10° N
USA 306 4.1 00:11:52 29° E 00:11:52 29° E 00:14:27 10° ENE
Cosmos 1238 Rocket 3.4 00:10:06 10° N 00:12:06 40° N 00:12:06 40° N
USA 307 4.2 00:15:20 28° E 00:15:20 28° E 00:17:52 10° ENE
ATLAS CENTAUR R/B 2.6 00:10:07 10° NW 00:13:59 34° W 00:13:59 34° W
SL-16 R/B 4.3 00:16:08 12° ESE 00:17:55 14° E 00:20:43 10° ENE
Cosmos 2322 Rocket 4.4 00:17:02 10° W 00:21:01 19° NW 00:25:02 10° N
Cosmos 1980 4.1 00:20:38 41° SE 00:21:50 47° ESE 00:27:14 10° NE
Cosmos 2333 Rocket 3.1 00:19:41 25° WSW 00:22:30 42° NW 00:27:53 10° NNE
Cosmos 1378 Rocket 3.4 00:22:19 73° S 00:22:42 86° ESE 00:27:11 10° N
ATLAS 5 CENTAUR R/B 3.0 00:10:01 10° NW 00:22:59 87° SW 00:24:40 42° SE
Cosmos 2322 4.2 00:20:47 34° WSW 00:23:06 55° WNW 00:28:44 10° NNE
Cosmos 468 4.4 00:17:54 10° NNW 00:23:09 89° ENE 00:24:27 53° SSE
CZ-4C R/B 3.0 00:16:08 10° NW 00:23:27 73° WSW 00:27:53 31° SSE
Cosmos 1844 Rocket 4.4 00:22:49 10° WNW 00:26:12 17° W 00:26:32 17° WSW
USA 215 4.0 00:21:13 10° NE 00:27:31 52° NNW 00:33:49 10° W
NOSS 0 Rocket 3.9 00:29:22 45° S 00:31:19 72° ESE 00:37:33 10° NNE
PSLV R/B 4.1 00:30:00 10° N 00:34:15 50° WNW 00:35:00 45° WSW
USA 32 4.3 00:35:15 42° SSE 00:36:47 60° E 00:41:57 10° NNE
Meteor 2-10 Rocket 4.2 00:33:07 10° N 00:38:41 54° ENE 00:41:17 29° SE
Cosmos 2151 Rocket 4.1 00:36:33 10° NNW 00:40:41 42° W 00:40:53 41° W
Cosmos 1975 Rocket 4.2 00:39:39 29° ESE 00:40:43 33° E 00:44:44 10° NNE
Cosmos 1745 Rocket 4.0 00:36:16 10° NNW 00:42:29 72° W 00:44:35 43° SSW
ADEOS Rocket 3.9 00:42:18 27° WSW 00:43:24 29° W 00:48:29 10° NNW
Cosmos 839 Rocket 4.2 00:37:25 10° NW 00:43:49 89° NE 00:49:12 20° SSE
USA 308 3.0 00:44:46 57° SE 00:44:46 57° SE 00:48:40 10° ENE
Okean 2 Rocket 4.0 00:40:52 10° NNW 00:44:57 34° W 00:45:13 34° W
Cosmos 2219 Rocket 3.3 00:42:56 22° WSW 00:45:49 36° NW 00:50:59 10° NNE
Cosmos 1025 Rocket 4.3 00:47:03 27° ESE 00:48:12 31° E 00:52:00 10° NNE
Meteor 2-12 Rocket 4.3 00:44:00 10° N 00:50:06 86° W 00:52:26 40° S
Meteor 1-16 Rocket 4.5 00:44:27 10° NNW 00:50:18 60° W 00:52:02 43° SSW
GP-B 3.1 00:52:40 10° N 00:57:08 74° E 00:58:07 52° SSE
Meteor 2-5 Rocket 4.5 00:55:38 28° SSE 00:58:12 45° E 01:03:35 10° NNE
Lacrosse 5 2.8 00:58:31 31° SE 00:59:07 32° SE 01:03:38 10° ENE
CZ-2D R/B 3.1 00:55:11 10° NNE 01:00:10 38° E 01:02:28 26° SE
Cosmos 1300 2.5 00:57:30 10° N 01:01:18 79° W 01:01:27 77° SW
SL-14 R/B 3.4 01:02:27 54° W 01:02:41 55° WNW 01:06:31 10° N
USA 267 3.7 01:02:15 36° SSW 01:03:19 38° SW 01:09:21 10° WNW
Cosmos 883 Rocket 4.5 01:04:14 38° SSW 01:06:48 77° W 01:13:11 10° N
Cosmos 371 Rocket 3.5 01:06:03 42° WSW 01:07:26 60° WNW 01:12:16 10° NNE
Cosmos 2150 Rocket 4.2 01:06:08 39° SW 01:07:50 59° WNW 01:12:57 10° NNE
USA 305 2.8 01:07:08 55° WSW 01:07:59 83° NW 01:12:11 10° NE
NOSS 2-2 (C) 4.4 01:04:02 10° NW 01:09:13 59° SW 01:12:46 29° SSE
USA 229 DEB 4.0 01:03:31 10° NW 01:10:45 58° WSW 01:15:06 27° S
USA 229 4.0 01:03:37 10° NW 01:10:51 58° WSW 01:15:14 27° S
Cosmos 2237 Rocket 2.2 01:11:28 39° SW 01:13:41 75° WNW 01:19:25 10° NNE
COSMOS 2428 4.0 01:12:17 18° WSW 01:15:35 32° NW 01:20:38 10° N
Cosmos 405 Rocket 4.3 01:18:03 22° W 01:18:28 22° WNW 01:21:31 10° NNW
Cosmos 304 Rocket 3.8 01:17:17 45° SW 01:18:43 74° WNW 01:23:34 10° NNE
Cosmos 1437 Rocket 4.1 01:16:32 10° NW 01:19:16 24° W 01:19:16 24° W
SL-16 R/B 3.0 01:14:42 14° SE 01:20:00 61° ENE 01:26:09 10° N
Lacrosse 5 rocket 2.6 01:21:53 25° SE 01:22:01 25° SE 01:25:20 10° ENE
Cosmos 1125 Rocket 4.2 01:20:00 30° WSW 01:22:03 44° WNW 01:27:02 10° N
Okean 1 Rocket 4.1 01:19:48 10° NNW 01:23:38 30° W 01:24:05 29° W
SME Rocket 3.1 01:24:34 47° S 01:25:40 72° WSW 01:30:38 10° NNW
Cosmos 1953 3.7 01:23:08 10° NW 01:26:25 25° W 01:26:26 25° W
Cosmos 2074 Rocket 4.4 01:22:41 10° N 01:28:57 63° ENE 01:33:59 16° SSE
Resurs 1-4 Rocket 2.2 01:24:13 10° NNE 01:29:29 69° ESE 01:31:56 32° S
Cosmos 2297 4.3 01:27:40 10° NNW 01:33:22 57° ENE 01:39:00 10° SE
Cosmos 1943 Rocket 2.4 01:27:44 10° NNW 01:33:26 72° ENE 01:39:05 10° SSE
MOZ.5/SAFIR/RUBIN 5/SL-8 4.1 01:33:59 38° SW 01:35:10 47° W 01:39:46 10° NNW
Cosmos 1709 Rocket 4.4 01:31:05 10° NNW 01:36:50 44° W 01:39:18 30° SW
Cosmos 2315 Rocket 4.4 01:35:34 30° SW 01:38:35 53° WNW 01:44:50 10° N
Cosmos 2184 Rocket 4.1 01:37:34 10° N 01:43:52 78° E 01:48:45 17° SSE
Cosmos 2278 Rocket 3.1 01:39:32 10° NW 01:44:19 29° WSW 01:45:23 27° WSW
ADEOS II 2.7 01:40:15 10° NNE 01:45:23 51° E 01:48:40 21° SSE
IDEFIX/ARIANE 42P 3.5 01:41:13 10° NNE 01:46:15 43° E 01:49:52 18° SSE
USA 306 3.6 01:47:33 21° W 01:50:06 49° NNW 01:54:10 10° NE
Cosmos 2084 Rocket 3.1 01:49:15 42° SW 01:50:26 75° NW 01:54:14 10° NE
USA 307 3.5 01:51:04 22° W 01:53:33 52° NNW 01:57:40 10° NE
Thor Agena Rocket 4.3 01:48:36 10° N 01:53:33 42° WNW 01:56:09 25° WSW
ERBS 3.3 01:54:54 27° WNW 01:55:57 36° NNW 01:58:49 10° NE
NPP 3.6 01:52:05 10° NNE 01:57:30 84° WNW 02:00:36 27° SSW
Cosmos 2369 Rocket 3.2 01:53:13 10° NNW 01:58:36 46° ENE 02:03:58 10° SE
SL-16 R/B 2.2 01:58:00 28° SSW 02:01:09 90° S 02:06:53 10° NNE
Cosmos 1455 Rocket 4.0 01:57:59 10° NNW 02:01:59 33° W 02:03:15 28° WSW
Cosmos 614 Rocket 4.2 01:57:13 10° NNW 02:02:26 73° ENE 02:07:38 10° SSE
CZ-4 R/B 3.9 01:57:51 10° N 02:02:27 59° WNW 02:04:41 29° SW
Cosmos 2228 4.2 01:58:27 10° N 02:02:38 42° ENE 02:06:44 10° SSE
EO 1 Del DPAF 3.6 02:00:06 10° NNE 02:03:33 50° E 02:05:17 25° SSE
Cosmos 2251 Rocket 4.5 01:59:17 10° NNW 02:04:22 48° ENE 02:09:28 10° SE
Meteor 1-28 Rocket 3.2 02:03:36 20° SSE 02:06:06 77° ENE 02:09:51 10° N
COSMOS 2455 3.2 02:04:48 22° S 02:08:40 60° ESE 02:14:35 10° NE
Cosmos 1536 Rocket 3.5 02:08:02 25° S 02:10:37 84° E 02:15:01 10° N
CZ-4C R/B 4.4 02:06:21 10° WNW 02:11:21 19° WSW 02:12:59 17° WSW
Nadezhda 1 Rocket 4.0 02:15:05 18° S 02:20:02 88° W 02:26:22 10° N
Meteor 1-24 Rocket 4.2 02:17:04 22° SW 02:20:18 45° WNW 02:25:33 10° N
UNK 4.0 02:19:09 23° SSW 02:21:46 48° W 02:26:15 10° NNW
MSX 4.0 02:17:38 10° NNE 02:23:24 71° ESE 02:28:25 14° S
USA 308 4.1 02:20:31 11° W 02:24:20 38° NNW 02:28:16 10° NE
Cosmos 1025 Rocket 4.4 02:23:55 19° WSW 02:25:48 25° WNW 02:29:23 10° NNW
Cosmos 1455 2.7 02:22:21 10° NNW 02:25:50 39° W 02:27:23 26° SW
MOS 1 Rocket 3.3 02:23:22 22° SSW 02:25:51 48° W 02:30:02 10° NNW
Cosmos 1271 Rocket 2.6 02:25:54 10° NNW 02:29:43 70° W 02:32:45 16° S
Cosmos 1606 Rocket 4.1 02:29:29 10° N 02:33:52 59° ENE 02:38:10 10° SSE
ALOS 4.3 02:33:43 10° NE 02:37:31 24° E 02:41:17 10° SSE
CZ-2C R/B 4.4 02:35:23 10° NE 02:39:42 27° E 02:43:53 10° SSE
CZ-2D R/B 3.1 02:35:22 10° N 02:40:07 33° WNW 02:43:47 15° WSW
Lacrosse 5 2.3 02:37:42 15° WSW 02:41:54 58° NNW 02:46:57 10° NE
Helios 1B rocket 3.5 02:40:38 10° NNE 02:44:30 40° E 02:48:19 10° S
Cosmos 2341 Rocket 4.2 02:40:16 10° N 02:46:42 81° E 02:53:06 10° S
Cosmos 2154 Rocket 4.4 02:44:00 10° NNW 02:50:02 48° W 02:55:59 10° SSW
BREEZE-M DEB (TANK) 3.5 02:47:13 16° SW 02:50:39 37° SSE 02:53:03 10° E
Meteor 2-1 Rocket 4.3 02:45:25 10° N 02:51:14 86° E 02:56:53 10° S
Cosmos 407 Rocket 3.9 02:47:03 10° NNW 02:52:24 69° ENE 02:57:38 10° SSE
SL-8 Rocket 4.2 02:47:05 10° N 02:53:26 76° E 02:59:45 10° SSE
Cosmos 1943 3.5 02:50:42 11° SSW 02:56:11 69° ESE 03:01:51 10° NNE
Cosmos 1328 3.9 02:52:21 10° S 02:56:17 76° E 03:00:17 10° NNE
Helios 1A 3.8 02:53:26 14° SSW 02:56:32 33° W 03:00:24 10° NNW
Cosmos 2237 Rocket 4.3 02:55:14 10° W 02:58:46 17° NW 03:02:20 10° N
Genesis I 3.9 02:55:43 10° NNW 02:59:45 61° NE 03:03:42 10° SE
Lacrosse 5 rocket 1.8 02:57:25 13° WSW 03:00:49 51° NNW 03:04:51 10° NE
Cosmos 1140 Rocket 3.5 02:58:03 10° NNW 03:03:21 88° ENE 03:08:36 10° SSE
SL-16 R/B 3.6 02:59:47 13° SW 03:04:00 25° W 03:09:01 10° NW
Lacrosse 4 Rocket 3.9 03:05:45 10° SSE 03:08:35 17° ESE 03:11:23 10° ENE
Resurs 1-4 Rocket 3.8 03:05:08 10° NNW 03:08:45 19° WNW 03:12:22 10° WSW
SeaSat 1 4.3 03:05:28 10° NE 03:09:36 26° ESE 03:13:42 10° SSE
Cosmos 1892 Rocket 3.7 03:05:36 10° S 03:10:03 84° E 03:14:34 10° N
Cosmos 1726 Rocket 3.5 03:09:03 10° NNW 03:13:27 69° W 03:17:48 10° S
Cosmos 1703 4.4 03:11:07 12° SW 03:14:13 29° WNW 03:17:42 10° NNW
Cosmos 1943 Rocket 3.6 03:12:44 10° WNW 03:16:32 19° W 03:20:21 10° SW
FENGYUN 3A 4.0 03:12:14 10° NNE 03:17:38 70° ESE 03:23:00 10° S
Cosmos 2263 4.2 03:12:04 10° NNW 03:17:41 63° WSW 03:23:19 10° S
NOSS 3-3 (A) 3.9 03:13:34 10° SW 03:19:12 89° NW 03:25:45 10° NE
NOSS 3-3 (C) 3.9 03:13:40 10° SW 03:19:18 89° NW 03:25:51 10° NE
ADEOS II 3.5 03:20:33 10° N 03:24:44 25° WNW 03:28:54 10° WSW
Cosmos 1825 3.9 03:21:36 10° SSE 03:24:54 32° E 03:28:15 10° NNE
IDEFIX/ARIANE 42P 3.8 03:21:10 10° N 03:25:37 28° WNW 03:30:04 10° WSW
SL-24 DEB 4.3 03:21:41 10° S 03:26:25 71° W 03:31:08 10° N
ARIANE 5 R/B 3.1 03:22:52 10° NNE 03:27:53 58° E 03:32:48 10° S
Cosmos 1624 Rocket 4.3 03:23:18 10° SSW 03:28:36 72° ESE 03:33:53 10° NNE
CBERS-1 4.2 03:25:44 10° N 03:30:46 60° WNW 03:35:48 10° SSW
Cosmos 2218 Rocket 4.1 03:29:04 10° NNW 03:35:14 65° W 03:41:26 10° S
MOS 1-B Rocket 4.0 03:32:07 10° S 03:37:34 51° W 03:43:10 10° NNW
DEBRIS 3.2 03:33:43 10° WNW 03:41:58 83° SSW 03:44:49 10° ESE
